GEFSNE_prec_meanprecacc_210.txt.gz
Total_Precipitation_Accumulation
1.77 1.86 1.87 1.87 1.87 1.81 1.82 1.88 1.97 1.92 1.75 1.56 1.52 1.47 1.51 1.53 1.64 1.31 1.31 1.47 1.32 1.22 1.15 1.10 1.08 1.03 0.98 0.97 0.94 0.93 0.96 1.03 1.14 1.23 1.30 1.38 1.51 1.69
1.50 1.62 1.70 1.75 1.85 1.88 1.95 1.97 1.98 1.99 1.93 1.69 1.62 1.58 1.55 1.49 1.74 1.47 1.43 1.47 1.28 1.14 1.03 0.96 0.93 0.89 0.85 0.84 0.86 0.86 0.85 0.85 0.88 0.94 1.01 1.08 1.18 1.31
1.30 1.39 1.47 1.52 1.63 1.70 1.76 1.77 1.86 1.91 1.90 1.75 1.65 1.63 1.60 1.59 1.62 1.49 1.38 1.30 1.21 1.13 0.97 0.89 0.87 0.84 0.82 0.82 0.83 0.82 0.82 0.81 0.82 0.84 0.87 0.93 0.97 1.03
1.10 1.17 1.23 1.27 1.35 1.37 1.47 1.52 1.55 1.62 1.68 1.76 1.81 1.75 1.68 1.65 1.55 1.41 1.23 1.08 1.05 1.05 0.94 0.89 0.88 0.89 0.90 0.91 0.89 0.86 0.80 0.72 0.71 0.74 0.78 0.78 0.78 0.83
0.87 0.93 1.01 1.07 1.09 1.08 1.13 1.17 1.26 1.35 1.54 1.62 1.67 1.71 1.68 1.68 1.69 1.44 1.28 1.24 0.98 0.94 0.87 0.86 0.86 0.85 0.84 0.83 0.80 0.78 0.75 0.65 0.56 0.56 0.61 0.66 0.68 0.68
0.73 0.77 0.79 0.81 0.81 0.83 0.84 0.90 1.02 1.23 1.41 1.49 1.46 1.47 1.53 1.49 1.59 1.53 1.42 1.32 1.13 0.85 0.79 0.72 0.73 0.73 0.72 0.67 0.66 0.64 0.65 0.66 0.63 0.58 0.55 0.52 0.52 0.51
0.62 0.61 0.59 0.61 0.65 0.64 0.63 0.72 0.89 1.11 1.23 1.34 1.38 1.32 1.30 1.33 1.36 1.31 1.33 1.32 1.20 0.99 0.91 0.74 0.67 0.68 0.71 0.70 0.68 0.61 0.56 0.53 0.54 0.52 0.50 0.49 0.48 0.47
0.59 0.52 0.46 0.46 0.47 0.50 0.53 0.60 0.72 0.85 0.97 1.11 1.18 1.19 1.18 1.18 1.24 1.25 1.26 1.30 1.29 1.11 1.05 0.95 0.77 0.84 0.81 0.73 0.68 0.60 0.58 0.56 0.55 0.54 0.53 0.52 0.50 0.48
0.63 0.62 0.51 0.41 0.47 0.51 0.53 0.56 0.60 0.64 0.75 0.91 1.03 1.05 1.07 1.15 1.26 1.27 1.29 1.29 1.28 1.16 1.16 1.14 0.99 0.95 0.76 0.64 0.66 0.59 0.55 0.55 0.55 0.52 0.53 0.53 0.53 0.53
0.64 0.64 0.64 0.60 0.52 0.51 0.49 0.54 0.61 0.68 0.74 0.80 0.95 0.98 0.91 0.98 1.14 1.18 1.18 1.16 1.12 1.09 1.15 1.20 0.99 0.90 0.69 0.72 0.67 0.56 0.50 0.53 0.53 0.47 0.47 0.48 0.50 0.53
0.51 0.51 0.51 0.52 0.50 0.49 0.52 0.59 0.63 0.69 0.63 0.68 0.74 0.80 0.88 0.91 0.93 1.00 1.11 1.23 1.21 1.10 1.09 1.18 1.07 0.92 0.78 0.81 0.73 0.60 0.56 0.59 0.56 0.46 0.41 0.40 0.41 0.46
0.47 0.45 0.42 0.38 0.38 0.38 0.46 0.62 0.73 0.69 0.64 0.67 0.81 0.97 1.04 1.02 0.93 0.98 1.10 1.20 1.20 1.21 1.09 1.12 1.14 1.03 0.94 0.78 0.75 0.75 0.76 0.81 0.73 0.56 0.44 0.41 0.42 0.45
0.49 0.48 0.45 0.36 0.32 0.33 0.40 0.53 0.59 0.57 0.65 0.84 1.05 1.13 1.11 1.04 0.95 0.92 1.01 1.12 1.18 1.23 1.06 1.05 1.12 1.14 1.18 0.98 0.75 0.79 0.90 1.01 1.00 0.82 0.60 0.52 0.48 0.45
0.45 0.43 0.39 0.36 0.31 0.33 0.36 0.41 0.44 0.53 0.76 1.00 1.11 1.06 0.91 0.80 0.78 0.75 0.78 0.89 1.03 1.03 0.96 0.99 1.11 1.16 1.18 1.09 0.90 0.81 0.94 1.09 1.17 1.10 0.90 0.74 0.67 0.60
0.39 0.37 0.37 0.39 0.40 0.45 0.46 0.44 0.51 0.69 0.88 1.00 1.02 0.91 0.78 0.71 0.67 0.69 0.67 0.78 0.84 0.76 0.67 0.75 0.93 1.02 1.12 1.13 1.08 1.09 1.16 1.28 1.30 1.27 1.17 0.97 0.82 0.76
0.36 0.41 0.50 0.56 0.57 0.58 0.61 0.68 0.72 0.75 0.77 0.87 0.88 0.79 0.67 0.63 0.62 0.61 0.65 0.71 0.80 0.78 0.68 0.66 0.76 0.94 1.07 1.06 1.14 1.23 1.28 1.48 1.47 1.35 1.30 1.24 1.08 0.89
0.34 0.48 0.66 0.72 0.72 0.69 0.66 0.67 0.71 0.70 0.72 0.73 0.71 0.68 0.65 0.60 0.58 0.54 0.58 0.61 0.71 0.73 0.71 0.67 0.71 0.76 0.78 0.84 0.98 1.06 1.15 1.31 1.42 1.37 1.34 1.42 1.39 1.16
0.37 0.59 0.71 0.73 0.74 0.67 0.61 0.58 0.58 0.58 0.57 0.58 0.60 0.61 0.62 0.60 0.58 0.54 0.53 0.57 0.64 0.62 0.61 0.61 0.64 0.70 0.68 0.64 0.81 0.96 1.01 1.18 1.28 1.25 1.19 1.34 1.47 1.27
0.41 0.54 0.62 0.67 0.67 0.60 0.57 0.56 0.56 0.55 0.51 0.51 0.54 0.56 0.57 0.56 0.56 0.56 0.54 0.56 0.58 0.57 0.54 0.50 0.53 0.61 0.69 0.76 0.82 0.94 0.97 1.05 1.08 1.07 1.07 1.13 1.31 1.26
0.41 0.48 0.52 0.56 0.57 0.55 0.53 0.51 0.51 0.52 0.50 0.48 0.49 0.51 0.53 0.52 0.49 0.49 0.49 0.46 0.50 0.51 0.51 0.49 0.49 0.55 0.63 0.72 0.88 0.97 0.96 0.84 0.82 0.88 0.92 1.00 1.11 1.10
0.39 0.41 0.43 0.44 0.44 0.46 0.47 0.46 0.44 0.44 0.45 0.44 0.45 0.48 0.49 0.49 0.47 0.43 0.39 0.35 0.39 0.44 0.48 0.50 0.48 0.44 0.46 0.53 0.71 0.86 0.89 0.93 0.84 0.76 0.76 0.82 0.84 0.76
0.34 0.38 0.39 0.37 0.36 0.36 0.36 0.37 0.38 0.37 0.35 0.37 0.43 0.48 0.49 0.48 0.44 0.39 0.37 0.39 0.41 0.43 0.44 0.43 0.41 0.39 0.42 0.52 0.67 0.82 0.82 0.75 0.72 0.75 0.72 0.58 0.49 0.54
0.36 0.36 0.33 0.32 0.31 0.31 0.32 0.32 0.32 0.32 0.33 0.34 0.38 0.43 0.43 0.41 0.37 0.33 0.31 0.30 0.30 0.33 0.37 0.40 0.39 0.39 0.41 0.45 0.52 0.60 0.60 0.54 0.46 0.48 0.59 0.62 0.52 0.51

GEFSNE_prec_meanprecacc_216.txt.gz
Total_Precipitation_Accumulation
1.81 1.89 1.91 1.91 1.91 1.83 1.85 1.91 2.00 1.95 1.77 1.59 1.55 1.49 1.53 1.55 1.66 1.33 1.32 1.50 1.34 1.24 1.16 1.11 1.11 1.05 1.00 0.99 0.97 0.96 1.01 1.10 1.20 1.29 1.38 1.47 1.60 1.78
1.52 1.64 1.73 1.78 1.88 1.91 1.98 2.00 2.01 2.02 1.96 1.72 1.64 1.59 1.56 1.50 1.75 1.48 1.44 1.49 1.30 1.16 1.05 0.98 0.95 0.91 0.86 0.86 0.88 0.88 0.88 0.90 0.94 1.00 1.09 1.18 1.28 1.40
1.33 1.41 1.50 1.56 1.66 1.73 1.79 1.80 1.89 1.94 1.93 1.78 1.67 1.65 1.61 1.59 1.63 1.49 1.39 1.31 1.23 1.14 0.99 0.91 0.88 0.85 0.83 0.84 0.85 0.85 0.84 0.84 0.87 0.89 0.94 1.01 1.08 1.13
1.14 1.20 1.26 1.30 1.38 1.40 1.49 1.56 1.58 1.65 1.70 1.78 1.84 1.77 1.69 1.66 1.56 1.42 1.23 1.09 1.06 1.06 0.96 0.90 0.89 0.90 0.92 0.93 0.91 0.88 0.83 0.75 0.75 0.80 0.85 0.86 0.86 0.93
0.91 0.97 1.03 1.09 1.10 1.10 1.15 1.20 1.28 1.38 1.55 1.64 1.68 1.73 1.69 1.70 1.70 1.45 1.28 1.25 0.98 0.95 0.89 0.88 0.88 0.86 0.86 0.85 0.83 0.80 0.77 0.68 0.60 0.60 0.66 0.73 0.76 0.77
0.79 0.81 0.82 0.83 0.82 0.84 0.85 0.92 1.03 1.25 1.42 1.50 1.47 1.48 1.54 1.50 1.60 1.54 1.43 1.33 1.14 0.86 0.81 0.73 0.75 0.76 0.75 0.70 0.68 0.67 0.68 0.69 0.66 0.61 0.58 0.57 0.58 0.59
0.66 0.65 0.63 0.65 0.67 0.66 0.64 0.74 0.90 1.12 1.25 1.35 1.38 1.33 1.31 1.34 1.37 1.33 1.34 1.34 1.22 1.01 0.92 0.76 0.69 0.71 0.74 0.74 0.71 0.65 0.60 0.57 0.58 0.55 0.52 0.52 0.52 0.53
0.67 0.58 0.52 0.51 0.51 0.53 0.56 0.62 0.73 0.86 0.98 1.12 1.19 1.21 1.19 1.19 1.26 1.27 1.28 1.31 1.31 1.12 1.06 0.96 0.80 0.87 0.84 0.78 0.73 0.65 0.63 0.61 0.59 0.57 0.56 0.55 0.53 0.52
0.76 0.73 0.60 0.47 0.52 0.55 0.56 0.59 0.64 0.67 0.76 0.92 1.04 1.05 1.08 1.16 1.28 1.28 1.31 1.31 1.30 1.17 1.17 1.15 1.01 0.98 0.79 0.68 0.70 0.65 0.60 0.58 0.58 0.55 0.57 0.56 0.56 0.55
0.73 0.74 0.75 0.69 0.59 0.56 0.53 0.58 0.63 0.70 0.75 0.81 0.95 0.99 0.92 0.99 1.15 1.20 1.20 1.18 1.15 1.12 1.17 1.22 1.01 0.92 0.72 0.76 0.71 0.59 0.53 0.55 0.55 0.50 0.50 0.50 0.53 0.56
0.57 0.57 0.56 0.58 0.54 0.54 0.56 0.62 0.65 0.70 0.64 0.69 0.74 0.82 0.90 0.93 0.95 1.01 1.12 1.25 1.23 1.14 1.12 1.21 1.09 0.94 0.81 0.85 0.76 0.63 0.58 0.61 0.59 0.49 0.43 0.42 0.44 0.49
0.52 0.51 0.49 0.44 0.42 0.41 0.48 0.64 0.75 0.72 0.65 0.68 0.82 0.98 1.05 1.05 0.96 0.99 1.11 1.21 1.22 1.25 1.12 1.15 1.16 1.05 0.98 0.82 0.78 0.77 0.78 0.83 0.75 0.58 0.47 0.44 0.45 0.48
0.53 0.53 0.50 0.41 0.35 0.35 0.42 0.55 0.61 0.58 0.66 0.85 1.06 1.15 1.13 1.07 0.98 0.93 1.02 1.13 1.21 1.25 1.09 1.09 1.15 1.16 1.21 1.03 0.80 0.83 0.92 1.03 1.01 0.84 0.63 0.55 0.52 0.49
0.48 0.48 0.44 0.39 0.33 0.35 0.37 0.43 0.45 0.54 0.77 1.01 1.13 1.08 0.93 0.82 0.80 0.76 0.80 0.91 1.05 1.06 1.00 1.04 1.15 1.19 1.21 1.13 0.95 0.87 0.98 1.12 1.18 1.11 0.91 0.77 0.70 0.62
0.40 0.40 0.39 0.41 0.42 0.47 0.47 0.46 0.53 0.71 0.90 1.02 1.04 0.93 0.80 0.72 0.69 0.71 0.69 0.79 0.85 0.79 0.72 0.80 0.98 1.06 1.16 1.17 1.12 1.14 1.21 1.33 1.32 1.29 1.18 0.98 0.84 0.77
0.38 0.44 0.53 0.58 0.59 0.59 0.63 0.70 0.75 0.79 0.81 0.90 0.90 0.82 0.69 0.64 0.64 0.63 0.67 0.73 0.81 0.80 0.71 0.70 0.81 0.97 1.10 1.10 1.19 1.28 1.33 1.53 1.51 1.37 1.31 1.26 1.09 0.90
0.38 0.51 0.68 0.73 0.73 0.70 0.67 0.68 0.73 0.72 0.75 0.76 0.74 0.71 0.67 0.63 0.61 0.58 0.61 0.64 0.73 0.75 0.74 0.71 0.75 0.81 0.82 0.89 1.04 1.12 1.20 1.36 1.47 1.40 1.36 1.43 1.41 1.18
0.42 0.63 0.74 0.75 0.76 0.68 0.63 0.59 0.59 0.61 0.60 0.61 0.63 0.64 0.65 0.63 0.61 0.58 0.57 0.60 0.66 0.65 0.64 0.65 0.69 0.75 0.73 0.68 0.85 1.00 1.05 1.22 1.33 1.29 1.23 1.36 1.49 1.29
0.45 0.58 0.65 0.70 0.69 0.62 0.58 0.57 0.58 0.57 0.53 0.52 0.56 0.59 0.60 0.59 0.59 0.59 0.59 0.61 0.62 0.61 0.57 0.54 0.57 0.66 0.73 0.80 0.86 0.98 1.01 1.08 1.11 1.10 1.10 1.16 1.33 1.29
0.46 0.51 0.55 0.58 0.60 0.58 0.55 0.53 0.53 0.53 0.51 0.49 0.50 0.53 0.56 0.55 0.53 0.53 0.54 0.52 0.54 0.55 0.55 0.52 0.52 0.58 0.66 0.75 0.92 1.01 0.98 0.87 0.84 0.90 0.94 1.02 1.13 1.12
0.43 0.45 0.46 0.47 0.48 0.49 0.51 0.50 0.47 0.47 0.47 0.47 0.48 0.51 0.52 0.52 0.51 0.45 0.42 0.38 0.43 0.48 0.52 0.53 0.50 0.46 0.49 0.56 0.73 0.88 0.92 0.95 0.86 0.77 0.77 0.84 0.86 0.79
0.37 0.41 0.42 0.41 0.40 0.40 0.40 0.41 0.42 0.41 0.38 0.40 0.46 0.51 0.52 0.51 0.46 0.41 0.39 0.41 0.44 0.46 0.47 0.46 0.44 0.42 0.45 0.54 0.69 0.84 0.84 0.76 0.74 0.76 0.73 0.59 0.51 0.56
0.38 0.39 0.36 0.35 0.34 0.35 0.35 0.36 0.36 0.36 0.36 0.37 0.41 0.46 0.46 0.43 0.39 0.35 0.32 0.31 0.32 0.34 0.40 0.43 0.42 0.42 0.44 0.47 0.53 0.61 0.62 0.55 0.46 0.48 0.60 0.63 0.54 0.52

GEFSNE_prec_meanprecacc_222.txt.gz
Total_Precipitation_Accumulation
1.86 1.95 1.96 1.96 1.95 1.88 1.90 1.97 2.06 2.00 1.82 1.62 1.57 1.52 1.56 1.57 1.69 1.35 1.34 1.52 1.36 1.25 1.18 1.14 1.13 1.08 1.04 1.02 0.99 0.98 1.03 1.12 1.23 1.32 1.41 1.51 1.65 1.83
1.58 1.70 1.79 1.84 1.94 1.96 2.02 2.05 2.07 2.08 2.00 1.75 1.66 1.61 1.58 1.53 1.78 1.51 1.47 1.52 1.32 1.18 1.07 0.99 0.97 0.93 0.89 0.89 0.91 0.91 0.90 0.92 0.96 1.02 1.11 1.21 1.32 1.46
1.40 1.47 1.56 1.62 1.73 1.78 1.83 1.85 1.94 1.99 1.98 1.82 1.70 1.67 1.63 1.62 1.66 1.53 1.44 1.36 1.26 1.17 1.02 0.93 0.90 0.87 0.85 0.86 0.87 0.87 0.86 0.86 0.89 0.92 0.96 1.04 1.11 1.19
1.21 1.26 1.32 1.38 1.45 1.45 1.54 1.60 1.62 1.70 1.75 1.84 1.88 1.80 1.72 1.69 1.60 1.45 1.26 1.12 1.08 1.09 0.98 0.92 0.91 0.91 0.93 0.94 0.92 0.89 0.84 0.77 0.78 0.83 0.88 0.89 0.90 0.98
1.00 1.05 1.11 1.16 1.17 1.15 1.20 1.24 1.32 1.41 1.60 1.69 1.73 1.76 1.72 1.73 1.74 1.48 1.31 1.28 1.00 0.96 0.91 0.90 0.89 0.88 0.87 0.86 0.83 0.81 0.79 0.70 0.62 0.63 0.71 0.78 0.81 0.81
0.85 0.88 0.88 0.90 0.89 0.91 0.91 0.97 1.09 1.30 1.47 1.55 1.51 1.52 1.58 1.55 1.65 1.57 1.46 1.35 1.16 0.88 0.82 0.75 0.77 0.78 0.77 0.72 0.70 0.68 0.69 0.71 0.68 0.64 0.62 0.61 0.63 0.64
0.76 0.74 0.71 0.73 0.75 0.74 0.71 0.80 0.96 1.18 1.30 1.39 1.42 1.37 1.35 1.39 1.42 1.36 1.37 1.37 1.25 1.03 0.94 0.78 0.71 0.74 0.78 0.77 0.73 0.66 0.61 0.60 0.61 0.59 0.57 0.57 0.57 0.59
0.75 0.67 0.62 0.63 0.62 0.61 0.63 0.69 0.79 0.90 1.02 1.16 1.23 1.25 1.23 1.23 1.31 1.31 1.32 1.35 1.34 1.15 1.09 0.99 0.82 0.90 0.87 0.79 0.74 0.66 0.64 0.64 0.62 0.61 0.61 0.60 0.58 0.57
0.82 0.80 0.68 0.56 0.62 0.63 0.64 0.66 0.69 0.72 0.81 0.97 1.09 1.10 1.12 1.19 1.32 1.33 1.36 1.36 1.34 1.19 1.20 1.19 1.04 1.01 0.81 0.69 0.71 0.65 0.61 0.59 0.60 0.58 0.59 0.58 0.59 0.58
0.77 0.78 0.79 0.77 0.70 0.69 0.65 0.67 0.71 0.77 0.81 0.86 1.00 1.03 0.97 1.03 1.19 1.24 1.24 1.22 1.19 1.15 1.19 1.25 1.04 0.95 0.75 0.78 0.72 0.60 0.55 0.56 0.57 0.51 0.51 0.52 0.56 0.60
0.61 0.61 0.61 0.63 0.61 0.62 0.67 0.75 0.78 0.80 0.71 0.75 0.80 0.86 0.94 0.97 0.98 1.04 1.15 1.29 1.28 1.18 1.15 1.25 1.13 0.97 0.84 0.88 0.78 0.64 0.59 0.63 0.60 0.49 0.45 0.44 0.47 0.53
0.56 0.55 0.53 0.49 0.47 0.46 0.54 0.73 0.87 0.85 0.78 0.77 0.88 1.03 1.09 1.09 0.99 1.03 1.15 1.26 1.28 1.31 1.16 1.19 1.21 1.09 1.02 0.85 0.81 0.80 0.80 0.84 0.76 0.59 0.48 0.46 0.48 0.52
0.57 0.57 0.55 0.45 0.39 0.39 0.47 0.61 0.69 0.67 0.76 0.97 1.16 1.22 1.19 1.12 1.02 0.97 1.06 1.19 1.28 1.33 1.14 1.12 1.19 1.21 1.25 1.07 0.83 0.85 0.95 1.05 1.03 0.85 0.64 0.56 0.54 0.51
0.52 0.52 0.49 0.43 0.36 0.37 0.40 0.47 0.50 0.60 0.84 1.10 1.24 1.19 1.01 0.87 0.85 0.82 0.85 0.98 1.11 1.12 1.05 1.08 1.19 1.23 1.25 1.16 0.99 0.91 1.02 1.16 1.21 1.13 0.93 0.79 0.72 0.65
0.43 0.43 0.42 0.44 0.45 0.50 0.52 0.51 0.58 0.76 0.97 1.10 1.12 1.01 0.89 0.81 0.77 0.78 0.74 0.85 0.90 0.83 0.77 0.85 1.03 1.11 1.21 1.22 1.17 1.19 1.26 1.37 1.36 1.32 1.22 1.01 0.86 0.80
0.40 0.46 0.54 0.61 0.62 0.63 0.66 0.74 0.79 0.85 0.87 0.96 0.96 0.88 0.75 0.71 0.72 0.71 0.73 0.78 0.86 0.84 0.76 0.76 0.87 1.04 1.16 1.17 1.25 1.34 1.38 1.58 1.55 1.42 1.36 1.29 1.12 0.93
0.41 0.54 0.71 0.76 0.76 0.73 0.70 0.71 0.76 0.76 0.79 0.80 0.78 0.76 0.72 0.68 0.66 0.63 0.67 0.68 0.77 0.79 0.80 0.78 0.83 0.89 0.89 0.96 1.12 1.18 1.25 1.42 1.52 1.45 1.41 1.48 1.45 1.22
0.44 0.66 0.77 0.78 0.79 0.71 0.66 0.62 0.63 0.65 0.64 0.65 0.65 0.67 0.68 0.67 0.66 0.62 0.61 0.64 0.71 0.70 0.71 0.74 0.78 0.85 0.83 0.76 0.93 1.07 1.10 1.28 1.38 1.34 1.27 1.42 1.55 1.34
0.46 0.60 0.69 0.73 0.73 0.65 0.60 0.60 0.61 0.60 0.56 0.55 0.58 0.61 0.63 0.63 0.63 0.63 0.63 0.65 0.66 0.66 0.64 0.62 0.67 0.77 0.84 0.89 0.92 1.03 1.06 1.12 1.15 1.15 1.15 1.21 1.39 1.34
0.48 0.54 0.58 0.62 0.64 0.61 0.58 0.57 0.57 0.56 0.54 0.52 0.53 0.57 0.60 0.60 0.57 0.57 0.58 0.57 0.59 0.62 0.62 0.60 0.61 0.67 0.75 0.84 1.00 1.06 1.03 0.91 0.88 0.94 0.99 1.07 1.18 1.17
0.46 0.48 0.50 0.52 0.52 0.52 0.53 0.53 0.52 0.51 0.51 0.50 0.52 0.55 0.57 0.57 0.56 0.51 0.47 0.45 0.50 0.56 0.59 0.60 0.57 0.52 0.55 0.63 0.80 0.95 0.97 1.00 0.91 0.81 0.80 0.87 0.90 0.83
0.40 0.45 0.47 0.46 0.44 0.42 0.41 0.43 0.46 0.46 0.43 0.44 0.49 0.55 0.57 0.55 0.51 0.46 0.46 0.49 0.52 0.54 0.55 0.53 0.50 0.48 0.52 0.62 0.75 0.89 0.90 0.81 0.78 0.79 0.75 0.61 0.53 0.59
0.42 0.43 0.41 0.39 0.37 0.36 0.37 0.38 0.39 0.40 0.42 0.43 0.45 0.49 0.49 0.47 0.44 0.40 0.38 0.39 0.41 0.42 0.47 0.51 0.49 0.49 0.50 0.52 0.58 0.65 0.66 0.59 0.49 0.51 0.62 0.65 0.55 0.54

GEFSNE_prec_meanprecacc_228.txt.gz
Total_Precipitation_Accumulation
1.96 2.06 2.06 2.05 2.03 1.95 1.98 2.05 2.14 2.08 1.90 1.69 1.63 1.55 1.57 1.59 1.71 1.38 1.38 1.55 1.38 1.27 1.19 1.14 1.14 1.09 1.05 1.03 1.02 1.01 1.05 1.14 1.25 1.34 1.42 1.52 1.67 1.86
1.68 1.82 1.89 1.92 2.01 2.03 2.10 2.13 2.16 2.17 2.08 1.81 1.70 1.63 1.61 1.54 1.80 1.54 1.51 1.56 1.35 1.20 1.08 1.00 0.98 0.94 0.90 0.91 0.93 0.93 0.92 0.94 0.98 1.04 1.13 1.22 1.33 1.48
1.49 1.58 1.67 1.71 1.81 1.85 1.91 1.95 2.05 2.10 2.08 1.90 1.76 1.72 1.68 1.66 1.70 1.57 1.47 1.40 1.29 1.19 1.03 0.94 0.91 0.88 0.87 0.87 0.88 0.88 0.88 0.88 0.91 0.93 0.98 1.06 1.13 1.20
1.29 1.34 1.40 1.46 1.54 1.55 1.64 1.72 1.76 1.83 1.87 1.93 1.96 1.87 1.77 1.74 1.65 1.50 1.31 1.16 1.11 1.11 1.00 0.94 0.93 0.93 0.94 0.95 0.94 0.91 0.86 0.79 0.79 0.85 0.90 0.91 0.92 0.99
1.06 1.11 1.16 1.23 1.24 1.23 1.28 1.33 1.42 1.52 1.72 1.81 1.83 1.85 1.80 1.80 1.81 1.55 1.36 1.34 1.03 0.98 0.93 0.92 0.92 0.90 0.89 0.87 0.85 0.83 0.81 0.72 0.64 0.64 0.72 0.79 0.83 0.83
0.92 0.94 0.95 0.97 0.97 0.99 1.00 1.07 1.19 1.42 1.60 1.67 1.60 1.61 1.67 1.64 1.74 1.65 1.52 1.40 1.21 0.90 0.84 0.78 0.80 0.81 0.79 0.74 0.72 0.71 0.71 0.72 0.69 0.64 0.62 0.62 0.65 0.67
0.82 0.81 0.78 0.80 0.83 0.82 0.79 0.89 1.07 1.30 1.43 1.51 1.52 1.45 1.44 1.47 1.50 1.44 1.44 1.43 1.31 1.06 0.97 0.80 0.74 0.77 0.80 0.79 0.75 0.69 0.64 0.62 0.62 0.60 0.58 0.58 0.59 0.62
0.80 0.73 0.67 0.68 0.68 0.67 0.69 0.77 0.89 1.02 1.14 1.27 1.32 1.32 1.30 1.30 1.38 1.39 1.40 1.44 1.41 1.19 1.13 1.02 0.85 0.93 0.89 0.82 0.76 0.68 0.66 0.65 0.63 0.61 0.62 0.61 0.60 0.60
0.85 0.85 0.72 0.59 0.66 0.69 0.70 0.72 0.77 0.82 0.93 1.09 1.19 1.19 1.20 1.27 1.41 1.42 1.44 1.45 1.41 1.24 1.25 1.24 1.07 1.05 0.84 0.72 0.74 0.67 0.62 0.60 0.60 0.59 0.60 0.60 0.61 0.60
0.80 0.82 0.83 0.80 0.74 0.76 0.74 0.76 0.80 0.85 0.89 0.96 1.11 1.14 1.07 1.13 1.29 1.33 1.33 1.31 1.26 1.20 1.25 1.31 1.09 1.00 0.78 0.81 0.75 0.62 0.56 0.58 0.58 0.52 0.52 0.53 0.57 0.61
0.65 0.65 0.66 0.67 0.65 0.69 0.75 0.83 0.86 0.86 0.76 0.81 0.86 0.94 1.02 1.06 1.09 1.15 1.25 1.39 1.37 1.25 1.22 1.31 1.19 1.03 0.89 0.92 0.81 0.67 0.61 0.64 0.61 0.51 0.46 0.45 0.47 0.54
0.62 0.61 0.59 0.54 0.52 0.50 0.58 0.78 0.92 0.90 0.83 0.82 0.93 1.07 1.14 1.14 1.07 1.14 1.26 1.36 1.37 1.39 1.23 1.25 1.25 1.13 1.06 0.90 0.84 0.82 0.82 0.86 0.77 0.61 0.49 0.47 0.49 0.53
0.61 0.63 0.60 0.50 0.42 0.42 0.51 0.66 0.74 0.71 0.81 1.03 1.24 1.29 1.27 1.20 1.10 1.07 1.18 1.30 1.37 1.40 1.19 1.18 1.24 1.25 1.29 1.11 0.86 0.88 0.97 1.07 1.04 0.86 0.66 0.58 0.55 0.52
0.56 0.56 0.52 0.46 0.39 0.40 0.44 0.52 0.55 0.65 0.89 1.16 1.31 1.29 1.11 0.98 0.94 0.89 0.93 1.07 1.20 1.19 1.11 1.13 1.24 1.28 1.29 1.19 1.02 0.94 1.05 1.18 1.24 1.16 0.95 0.81 0.74 0.66
0.46 0.45 0.45 0.47 0.47 0.53 0.55 0.54 0.61 0.81 1.03 1.16 1.19 1.10 0.98 0.90 0.87 0.86 0.82 0.94 1.00 0.91 0.84 0.91 1.08 1.16 1.26 1.25 1.20 1.22 1.29 1.41 1.39 1.35 1.24 1.03 0.89 0.82
0.45 0.49 0.57 0.64 0.65 0.67 0.71 0.77 0.82 0.89 0.92 1.02 1.02 0.95 0.84 0.81 0.83 0.81 0.82 0.87 0.95 0.93 0.84 0.83 0.93 1.09 1.21 1.21 1.28 1.37 1.41 1.62 1.59 1.45 1.38 1.32 1.15 0.96
0.44 0.57 0.74 0.81 0.81 0.78 0.75 0.76 0.81 0.81 0.84 0.85 0.83 0.81 0.80 0.78 0.77 0.73 0.77 0.78 0.87 0.89 0.89 0.87 0.90 0.96 0.96 1.02 1.16 1.23 1.30 1.46 1.55 1.49 1.44 1.52 1.50 1.27
0.48 0.70 0.82 0.83 0.85 0.76 0.71 0.67 0.67 0.70 0.69 0.69 0.70 0.72 0.74 0.74 0.75 0.70 0.70 0.73 0.80 0.80 0.80 0.83 0.87 0.96 0.95 0.85 1.00 1.15 1.17 1.33 1.42 1.37 1.31 1.46 1.60 1.41
0.49 0.64 0.73 0.78 0.78 0.70 0.65 0.63 0.65 0.64 0.61 0.60 0.63 0.66 0.67 0.68 0.70 0.71 0.71 0.73 0.75 0.75 0.72 0.71 0.76 0.87 0.96 0.99 0.99 1.09 1.13 1.18 1.21 1.19 1.20 1.26 1.44 1.40
0.52 0.57 0.62 0.67 0.68 0.65 0.62 0.61 0.61 0.60 0.58 0.57 0.58 0.61 0.64 0.65 0.62 0.63 0.65 0.64 0.67 0.69 0.70 0.70 0.71 0.78 0.86 0.92 1.05 1.10 1.06 0.95 0.92 0.99 1.03 1.12 1.23 1.21
0.50 0.53 0.53 0.55 0.55 0.56 0.58 0.58 0.56 0.56 0.56 0.55 0.56 0.60 0.63 0.63 0.62 0.56 0.54 0.51 0.57 0.63 0.67 0.69 0.68 0.65 0.68 0.74 0.89 1.00 0.99 1.02 0.94 0.86 0.85 0.91 0.94 0.86
0.44 0.49 0.51 0.50 0.50 0.46 0.45 0.47 0.50 0.50 0.49 0.50 0.55 0.60 0.63 0.62 0.58 0.52 0.52 0.55 0.57 0.60 0.62 0.60 0.59 0.60 0.64 0.74 0.85 0.95 0.94 0.83 0.80 0.83 0.80 0.66 0.57 0.62
0.47 0.48 0.46 0.45 0.42 0.40 0.39 0.41 0.43 0.44 0.46 0.48 0.51 0.56 0.56 0.53 0.50 0.45 0.43 0.44 0.46 0.49 0.54 0.58 0.58 0.58 0.60 0.63 0.67 0.73 0.71 0.62 0.52 0.54 0.66 0.69 0.58 0.56

GEFSNE_prec_meanprecacc_234.txt.gz
Total_Precipitation_Accumulation
2.01 2.12 2.12 2.10 2.08 2.01 2.06 2.14 2.22 2.15 1.95 1.73 1.68 1.59 1.61 1.61 1.72 1.39 1.40 1.57 1.39 1.28 1.21 1.16 1.15 1.09 1.05 1.04 1.02 1.02 1.06 1.16 1.27 1.37 1.45 1.54 1.69 1.88
1.75 1.89 1.97 2.00 2.09 2.13 2.21 2.24 2.24 2.24 2.14 1.84 1.74 1.67 1.64 1.57 1.82 1.56 1.53 1.58 1.37 1.21 1.10 1.02 0.98 0.95 0.91 0.91 0.93 0.94 0.93 0.95 0.99 1.06 1.15 1.24 1.35 1.50
1.57 1.66 1.76 1.80 1.90 1.94 2.00 2.03 2.12 2.17 2.14 1.94 1.80 1.77 1.73 1.71 1.74 1.59 1.49 1.41 1.31 1.20 1.05 0.95 0.92 0.89 0.87 0.87 0.89 0.89 0.89 0.89 0.92 0.96 1.01 1.08 1.15 1.22
1.40 1.45 1.54 1.56 1.62 1.62 1.72 1.78 1.80 1.87 1.92 1.98 2.00 1.93 1.84 1.80 1.71 1.55 1.34 1.17 1.13 1.12 1.01 0.96 0.94 0.94 0.95 0.96 0.94 0.92 0.87 0.80 0.81 0.87 0.92 0.93 0.95 1.02
1.18 1.21 1.26 1.30 1.30 1.28 1.35 1.37 1.46 1.56 1.76 1.85 1.87 1.91 1.88 1.87 1.88 1.61 1.42 1.37 1.05 1.00 0.94 0.94 0.94 0.92 0.90 0.88 0.86 0.84 0.81 0.73 0.65 0.66 0.74 0.82 0.85 0.85
0.98 1.01 1.00 1.00 1.00 1.02 1.04 1.10 1.23 1.46 1.64 1.70 1.65 1.67 1.72 1.70 1.82 1.73 1.59 1.46 1.24 0.92 0.86 0.79 0.81 0.83 0.82 0.76 0.74 0.72 0.72 0.73 0.70 0.66 0.65 0.64 0.67 0.68
0.87 0.87 0.82 0.83 0.87 0.85 0.81 0.91 1.10 1.34 1.46 1.54 1.56 1.51 1.50 1.54 1.57 1.51 1.50 1.49 1.37 1.11 1.01 0.82 0.75 0.79 0.82 0.81 0.77 0.70 0.65 0.63 0.63 0.61 0.61 0.61 0.61 0.64
0.85 0.76 0.69 0.70 0.71 0.71 0.72 0.81 0.94 1.05 1.17 1.30 1.36 1.38 1.37 1.38 1.45 1.46 1.48 1.51 1.48 1.25 1.18 1.06 0.88 0.95 0.91 0.84 0.78 0.69 0.67 0.67 0.65 0.64 0.65 0.65 0.63 0.63
0.88 0.86 0.73 0.61 0.68 0.73 0.74 0.77 0.82 0.87 0.97 1.13 1.24 1.24 1.28 1.36 1.51 1.51 1.53 1.53 1.48 1.30 1.30 1.28 1.11 1.07 0.87 0.74 0.77 0.70 0.65 0.63 0.64 0.62 0.64 0.64 0.65 0.63
0.82 0.83 0.84 0.81 0.77 0.80 0.77 0.79 0.83 0.88 0.93 1.00 1.15 1.19 1.14 1.22 1.39 1.42 1.43 1.41 1.36 1.28 1.31 1.36 1.13 1.03 0.82 0.85 0.79 0.65 0.59 0.60 0.61 0.55 0.55 0.57 0.62 0.65
0.66 0.67 0.68 0.68 0.67 0.72 0.79 0.87 0.89 0.89 0.79 0.84 0.90 0.98 1.09 1.14 1.19 1.25 1.35 1.49 1.45 1.33 1.28 1.36 1.23 1.06 0.92 0.96 0.85 0.71 0.64 0.67 0.64 0.54 0.49 0.48 0.51 0.58
0.63 0.62 0.61 0.57 0.55 0.53 0.62 0.81 0.95 0.92 0.85 0.85 0.97 1.12 1.19 1.20 1.15 1.23 1.34 1.44 1.44 1.45 1.28 1.29 1.29 1.18 1.12 0.95 0.88 0.86 0.85 0.89 0.80 0.63 0.52 0.49 0.51 0.56
0.63 0.64 0.63 0.54 0.46 0.45 0.53 0.68 0.76 0.73 0.82 1.04 1.26 1.32 1.30 1.24 1.16 1.13 1.26 1.39 1.45 1.45 1.23 1.22 1.28 1.30 1.35 1.16 0.90 0.90 1.00 1.10 1.07 0.89 0.68 0.60 0.57 0.55
0.58 0.58 0.55 0.50 0.42 0.44 0.47 0.55 0.58 0.67 0.90 1.17 1.33 1.31 1.14 1.01 0.99 0.96 1.00 1.16 1.28 1.26 1.15 1.16 1.27 1.32 1.33 1.23 1.05 0.96 1.06 1.20 1.26 1.17 0.97 0.83 0.76 0.68
0.50 0.50 0.49 0.51 0.51 0.57 0.59 0.57 0.63 0.83 1.05 1.18 1.21 1.12 1.01 0.94 0.92 0.93 0.90 1.02 1.08 0.99 0.90 0.95 1.11 1.21 1.30 1.28 1.22 1.24 1.31 1.42 1.41 1.37 1.26 1.05 0.90 0.84
0.49 0.54 0.62 0.68 0.70 0.71 0.74 0.80 0.85 0.92 0.95 1.05 1.04 0.97 0.87 0.87 0.89 0.87 0.88 0.93 1.03 1.00 0.91 0.88 0.98 1.14 1.26 1.24 1.31 1.39 1.43 1.63 1.60 1.47 1.41 1.34 1.17 0.97
0.48 0.61 0.79 0.85 0.87 0.83 0.79 0.80 0.84 0.86 0.88 0.88 0.86 0.84 0.83 0.82 0.81 0.79 0.82 0.84 0.93 0.96 0.96 0.93 0.96 1.02 1.02 1.06 1.19 1.25 1.32 1.49 1.57 1.51 1.46 1.54 1.53 1.29
0.51 0.74 0.86 0.88 0.89 0.79 0.73 0.69 0.69 0.72 0.71 0.72 0.72 0.74 0.76 0.77 0.78 0.75 0.75 0.79 0.86 0.86 0.87 0.90 0.92 1.03 1.03 0.93 1.06 1.18 1.19 1.36 1.45 1.40 1.33 1.48 1.62 1.43
0.51 0.66 0.76 0.82 0.82 0.72 0.66 0.65 0.67 0.66 0.63 0.63 0.66 0.68 0.70 0.71 0.74 0.75 0.75 0.78 0.80 0.80 0.79 0.80 0.83 0.94 1.03 1.06 1.05 1.13 1.16 1.21 1.23 1.23 1.23 1.28 1.46 1.44
0.54 0.60 0.65 0.70 0.72 0.68 0.65 0.65 0.64 0.64 0.62 0.60 0.61 0.64 0.67 0.68 0.66 0.68 0.70 0.69 0.73 0.76 0.78 0.80 0.81 0.86 0.93 0.98 1.10 1.14 1.09 0.98 0.94 1.01 1.06 1.14 1.26 1.25
0.54 0.55 0.56 0.58 0.59 0.60 0.62 0.63 0.61 0.59 0.59 0.57 0.58 0.63 0.66 0.66 0.66 0.61 0.59 0.58 0.65 0.71 0.75 0.79 0.80 0.75 0.76 0.82 0.96 1.05 1.04 1.06 0.97 0.88 0.87 0.93 0.96 0.89
0.48 0.52 0.54 0.55 0.53 0.51 0.49 0.51 0.54 0.53 0.51 0.52 0.57 0.63 0.66 0.66 0.62 0.56 0.57 0.62 0.66 0.70 0.71 0.70 0.69 0.70 0.73 0.85 0.94 1.02 0.99 0.87 0.83 0.85 0.82 0.68 0.59 0.63
0.51 0.52 0.50 0.51 0.46 0.43 0.44 0.46 0.47 0.48 0.49 0.51 0.55 0.60 0.60 0.57 0.54 0.49 0.48 0.50 0.53 0.56 0.61 0.66 0.67 0.68 0.69 0.72 0.78 0.80 0.76 0.66 0.54 0.55 0.68 0.70 0.59 0.58

GEFSNE_prec_meanprecacc_240.txt.gz
Total_Precipitation_Accumulation
2.04 2.15 2.14 2.12 2.10 2.03 2.09 2.17 2.24 2.17 1.96 1.75 1.69 1.62 1.64 1.65 1.77 1.43 1.45 1.63 1.44 1.33 1.24 1.19 1.19 1.13 1.08 1.06 1.03 1.03 1.07 1.16 1.27 1.37 1.47 1.57 1.72 1.92
1.78 1.92 2.00 2.02 2.12 2.15 2.23 2.27 2.27 2.27 2.17 1.87 1.76 1.69 1.68 1.61 1.85 1.58 1.56 1.63 1.42 1.25 1.13 1.04 1.01 0.97 0.93 0.93 0.95 0.95 0.94 0.96 1.00 1.08 1.17 1.26 1.37 1.52
1.61 1.70 1.80 1.83 1.93 1.98 2.04 2.07 2.16 2.20 2.18 1.97 1.83 1.79 1.76 1.74 1.77 1.61 1.51 1.44 1.34 1.23 1.07 0.98 0.94 0.90 0.89 0.89 0.90 0.90 0.90 0.91 0.94 0.97 1.02 1.09 1.17 1.24
1.47 1.51 1.59 1.60 1.65 1.65 1.75 1.81 1.84 1.90 1.95 2.00 2.02 1.95 1.87 1.82 1.74 1.58 1.35 1.19 1.15 1.14 1.03 0.97 0.95 0.95 0.96 0.97 0.96 0.93 0.88 0.81 0.82 0.88 0.94 0.95 0.97 1.05
1.22 1.27 1.33 1.33 1.31 1.30 1.37 1.39 1.48 1.58 1.77 1.86 1.88 1.94 1.91 1.90 1.92 1.65 1.44 1.39 1.08 1.02 0.96 0.96 0.95 0.93 0.92 0.90 0.87 0.85 0.82 0.74 0.66 0.67 0.75 0.83 0.87 0.87
1.01 1.06 1.08 1.03 1.01 1.03 1.06 1.12 1.25 1.49 1.66 1.72 1.66 1.69 1.77 1.74 1.87 1.76 1.62 1.48 1.27 0.95 0.89 0.82 0.83 0.84 0.83 0.78 0.75 0.73 0.73 0.74 0.72 0.67 0.66 0.65 0.68 0.70
0.90 0.92 0.89 0.86 0.88 0.87 0.83 0.93 1.12 1.36 1.48 1.56 1.58 1.54 1.55 1.59 1.63 1.55 1.53 1.52 1.40 1.13 1.03 0.84 0.77 0.80 0.84 0.83 0.79 0.71 0.66 0.64 0.64 0.63 0.62 0.62 0.62 0.65
0.88 0.81 0.76 0.74 0.72 0.73 0.74 0.83 0.96 1.08 1.20 1.32 1.38 1.40 1.41 1.43 1.51 1.52 1.52 1.54 1.51 1.28 1.21 1.09 0.90 0.96 0.93 0.85 0.80 0.71 0.69 0.68 0.66 0.66 0.66 0.66 0.65 0.65
0.91 0.91 0.77 0.63 0.70 0.74 0.76 0.80 0.86 0.90 0.99 1.15 1.25 1.26 1.31 1.41 1.56 1.56 1.57 1.56 1.50 1.33 1.34 1.32 1.15 1.10 0.89 0.76 0.78 0.71 0.66 0.65 0.65 0.65 0.66 0.67 0.67 0.66
0.84 0.86 0.87 0.82 0.78 0.82 0.80 0.82 0.86 0.91 0.97 1.04 1.18 1.21 1.17 1.26 1.45 1.47 1.49 1.46 1.39 1.32 1.36 1.41 1.18 1.08 0.85 0.88 0.82 0.67 0.61 0.63 0.63 0.58 0.59 0.61 0.66 0.69
0.68 0.69 0.70 0.70 0.69 0.75 0.81 0.90 0.92 0.92 0.83 0.87 0.92 1.00 1.11 1.17 1.23 1.29 1.41 1.54 1.49 1.37 1.33 1.41 1.29 1.13 0.97 0.99 0.89 0.75 0.68 0.71 0.67 0.56 0.52 0.52 0.55 0.63
0.65 0.64 0.63 0.60 0.59 0.57 0.65 0.85 0.98 0.96 0.88 0.88 0.99 1.14 1.21 1.22 1.18 1.26 1.39 1.49 1.47 1.49 1.32 1.34 1.34 1.24 1.18 1.00 0.92 0.90 0.90 0.94 0.83 0.67 0.55 0.52 0.55 0.59
0.64 0.65 0.64 0.56 0.49 0.49 0.57 0.72 0.80 0.78 0.86 1.07 1.28 1.34 1.32 1.26 1.18 1.16 1.31 1.44 1.49 1.50 1.29 1.28 1.34 1.35 1.40 1.21 0.95 0.95 1.03 1.13 1.10 0.92 0.71 0.63 0.60 0.57
0.59 0.60 0.57 0.52 0.44 0.46 0.50 0.58 0.62 0.72 0.96 1.21 1.36 1.33 1.16 1.03 1.01 0.98 1.04 1.20 1.33 1.32 1.22 1.23 1.35 1.40 1.38 1.26 1.09 1.01 1.10 1.23 1.28 1.19 0.99 0.85 0.79 0.71
0.52 0.52 0.52 0.54 0.55 0.61 0.63 0.61 0.67 0.87 1.09 1.22 1.23 1.14 1.03 0.97 0.95 0.96 0.94 1.07 1.14 1.07 0.98 1.03 1.20 1.28 1.36 1.32 1.26 1.27 1.33 1.44 1.42 1.39 1.28 1.07 0.92 0.86
0.51 0.56 0.65 0.72 0.74 0.76 0.79 0.85 0.89 0.95 0.98 1.07 1.06 0.99 0.89 0.89 0.92 0.90 0.93 0.99 1.09 1.09 0.99 0.95 1.05 1.21 1.31 1.28 1.34 1.41 1.45 1.65 1.62 1.48 1.42 1.36 1.19 0.99
0.53 0.66 0.83 0.90 0.92 0.89 0.85 0.86 0.89 0.88 0.90 0.89 0.87 0.85 0.85 0.85 0.84 0.82 0.87 0.89 1.00 1.05 1.05 1.01 1.03 1.08 1.07 1.10 1.23 1.27 1.34 1.50 1.59 1.52 1.48 1.56 1.55 1.31
0.54 0.76 0.90 0.93 0.93 0.83 0.77 0.73 0.74 0.75 0.72 0.73 0.75 0.78 0.81 0.81 0.81 0.79 0.80 0.85 0.93 0.94 0.96 0.99 1.01 1.10 1.09 0.98 1.09 1.21 1.21 1.38 1.48 1.42 1.35 1.50 1.64 1.45
0.54 0.67 0.78 0.85 0.85 0.75 0.68 0.67 0.70 0.69 0.65 0.66 0.70 0.73 0.75 0.75 0.78 0.79 0.79 0.83 0.85 0.86 0.88 0.89 0.92 1.02 1.10 1.12 1.10 1.17 1.19 1.23 1.26 1.25 1.25 1.30 1.48 1.45
0.56 0.62 0.67 0.73 0.75 0.71 0.67 0.67 0.67 0.67 0.65 0.65 0.66 0.69 0.72 0.73 0.71 0.71 0.73 0.74 0.79 0.83 0.86 0.87 0.89 0.94 1.00 1.03 1.15 1.19 1.13 1.01 0.97 1.04 1.08 1.16 1.28 1.28
0.56 0.58 0.58 0.61 0.62 0.63 0.65 0.65 0.64 0.62 0.62 0.62 0.63 0.67 0.69 0.69 0.69 0.65 0.63 0.63 0.71 0.79 0.84 0.87 0.89 0.85 0.84 0.88 1.01 1.10 1.09 1.11 1.01 0.91 0.90 0.97 0.99 0.91
0.51 0.54 0.56 0.57 0.56 0.53 0.52 0.54 0.57 0.56 0.53 0.55 0.60 0.65 0.69 0.70 0.66 0.60 0.61 0.66 0.71 0.76 0.78 0.76 0.75 0.76 0.80 0.91 0.99 1.06 1.03 0.92 0.89 0.92 0.87 0.73 0.63 0.66
0.55 0.54 0.51 0.52 0.48 0.46 0.48 0.49 0.51 0.51 0.51 0.53 0.57 0.62 0.62 0.60 0.57 0.53 0.51 0.53 0.57 0.61 0.67 0.71 0.72 0.74 0.74 0.77 0.82 0.85 0.80 0.70 0.60 0.62 0.74 0.75 0.63 0.60

GEFSNE_prec_meanprecacc_246.txt.gz
Total_Precipitation_Accumulation
2.09 2.20 2.19 2.17 2.16 2.09 2.13 2.21 2.27 2.20 1.99 1.77 1.72 1.64 1.67 1.68 1.80 1.46 1.48 1.65 1.45 1.34 1.25 1.21 1.22 1.16 1.12 1.12 1.10 1.10 1.12 1.22 1.34 1.43 1.51 1.59 1.74 1.94
1.83 1.97 2.05 2.08 2.18 2.21 2.30 2.31 2.31 2.31 2.20 1.88 1.78 1.71 1.71 1.64 1.89 1.62 1.59 1.66 1.43 1.26 1.14 1.06 1.03 1.00 0.97 0.99 1.01 1.02 1.01 0.99 1.04 1.12 1.20 1.28 1.39 1.54
1.65 1.75 1.85 1.90 2.00 2.04 2.09 2.12 2.21 2.25 2.22 1.99 1.85 1.81 1.79 1.78 1.80 1.66 1.55 1.48 1.38 1.26 1.09 1.00 0.96 0.92 0.91 0.93 0.96 0.96 0.97 0.96 0.97 1.00 1.04 1.11 1.18 1.26
1.50 1.56 1.64 1.66 1.73 1.71 1.80 1.86 1.88 1.95 1.98 2.02 2.04 1.97 1.89 1.85 1.78 1.62 1.39 1.23 1.19 1.18 1.05 1.00 0.98 0.98 0.99 1.01 1.00 0.98 0.94 0.87 0.87 0.92 0.96 0.97 0.99 1.07
1.26 1.31 1.38 1.39 1.38 1.35 1.41 1.43 1.52 1.62 1.80 1.88 1.90 1.95 1.93 1.93 1.97 1.70 1.48 1.43 1.11 1.05 0.99 0.98 0.99 0.96 0.95 0.94 0.92 0.90 0.87 0.79 0.71 0.71 0.78 0.86 0.89 0.89
1.04 1.09 1.11 1.06 1.04 1.06 1.09 1.15 1.29 1.53 1.70 1.75 1.68 1.71 1.79 1.77 1.93 1.82 1.67 1.54 1.31 0.99 0.92 0.85 0.87 0.87 0.85 0.80 0.77 0.75 0.76 0.77 0.76 0.71 0.68 0.67 0.70 0.71
0.94 0.94 0.92 0.89 0.90 0.88 0.85 0.96 1.15 1.40 1.52 1.59 1.60 1.56 1.56 1.62 1.69 1.61 1.59 1.58 1.45 1.18 1.07 0.88 0.80 0.83 0.87 0.85 0.81 0.73 0.67 0.65 0.67 0.65 0.64 0.64 0.65 0.67
0.91 0.84 0.79 0.76 0.74 0.75 0.76 0.85 0.98 1.10 1.22 1.35 1.40 1.42 1.43 1.48 1.59 1.59 1.58 1.60 1.57 1.33 1.26 1.14 0.94 1.00 0.96 0.88 0.82 0.73 0.70 0.70 0.68 0.68 0.68 0.68 0.67 0.67
0.97 0.96 0.81 0.66 0.72 0.76 0.79 0.84 0.89 0.92 1.01 1.18 1.28 1.28 1.35 1.48 1.65 1.64 1.64 1.62 1.56 1.38 1.40 1.37 1.19 1.15 0.92 0.79 0.80 0.73 0.68 0.66 0.67 0.67 0.69 0.69 0.70 0.68
0.91 0.92 0.92 0.86 0.80 0.84 0.83 0.86 0.90 0.94 0.99 1.06 1.21 1.24 1.21 1.33 1.54 1.55 1.55 1.51 1.44 1.36 1.41 1.47 1.23 1.13 0.89 0.92 0.85 0.69 0.62 0.64 0.64 0.60 0.61 0.63 0.68 0.72
0.74 0.73 0.72 0.72 0.72 0.78 0.85 0.93 0.95 0.95 0.85 0.89 0.94 1.02 1.14 1.22 1.30 1.35 1.46 1.59 1.54 1.42 1.37 1.46 1.34 1.19 1.03 1.05 0.93 0.77 0.70 0.72 0.68 0.58 0.53 0.54 0.57 0.65
0.70 0.68 0.66 0.63 0.61 0.60 0.70 0.89 1.01 0.98 0.91 0.90 1.01 1.16 1.23 1.26 1.23 1.31 1.43 1.53 1.52 1.55 1.37 1.39 1.39 1.29 1.24 1.06 0.97 0.93 0.92 0.96 0.85 0.68 0.56 0.54 0.57 0.61
0.69 0.70 0.68 0.60 0.52 0.52 0.62 0.77 0.85 0.82 0.90 1.11 1.33 1.38 1.35 1.29 1.22 1.20 1.34 1.47 1.52 1.54 1.33 1.33 1.39 1.41 1.45 1.26 1.00 0.99 1.07 1.17 1.13 0.94 0.73 0.65 0.62 0.59
0.65 0.65 0.63 0.58 0.51 0.52 0.57 0.66 0.69 0.79 1.02 1.26 1.41 1.38 1.20 1.07 1.06 1.04 1.08 1.25 1.38 1.37 1.27 1.29 1.40 1.45 1.43 1.32 1.14 1.06 1.15 1.27 1.32 1.23 1.02 0.89 0.81 0.73
0.57 0.56 0.56 0.59 0.61 0.69 0.73 0.72 0.78 0.96 1.17 1.27 1.28 1.19 1.07 1.01 1.00 1.00 0.98 1.11 1.18 1.11 1.03 1.08 1.25 1.34 1.43 1.39 1.31 1.32 1.38 1.50 1.48 1.43 1.32 1.10 0.95 0.89
0.56 0.61 0.69 0.76 0.79 0.82 0.87 0.94 0.98 1.03 1.04 1.12 1.11 1.03 0.94 0.95 0.97 0.94 0.97 1.02 1.13 1.14 1.04 1.01 1.10 1.27 1.38 1.36 1.40 1.47 1.50 1.71 1.67 1.54 1.47 1.40 1.22 1.02
0.55 0.69 0.86 0.93 0.96 0.94 0.92 0.94 0.97 0.97 0.97 0.96 0.93 0.90 0.90 0.90 0.89 0.86 0.91 0.93 1.05 1.10 1.10 1.07 1.10 1.16 1.15 1.17 1.29 1.33 1.39 1.56 1.65 1.58 1.53 1.61 1.59 1.34
0.58 0.80 0.94 0.97 0.99 0.89 0.83 0.80 0.81 0.81 0.78 0.79 0.81 0.83 0.86 0.85 0.86 0.83 0.85 0.90 0.99 1.00 1.03 1.07 1.10 1.19 1.17 1.06 1.16 1.27 1.27 1.43 1.53 1.49 1.40 1.54 1.68 1.48
0.58 0.71 0.82 0.90 0.90 0.80 0.73 0.73 0.75 0.73 0.71 0.71 0.76 0.79 0.80 0.80 0.83 0.85 0.85 0.90 0.93 0.94 0.96 0.97 1.01 1.10 1.17 1.17 1.16 1.23 1.25 1.29 1.32 1.31 1.30 1.34 1.51 1.47
0.59 0.65 0.70 0.77 0.79 0.75 0.71 0.72 0.73 0.72 0.71 0.71 0.71 0.74 0.77 0.78 0.76 0.77 0.79 0.80 0.85 0.90 0.93 0.96 0.98 1.02 1.06 1.08 1.20 1.25 1.19 1.07 1.03 1.09 1.12 1.19 1.31 1.30
0.59 0.60 0.61 0.65 0.66 0.67 0.69 0.69 0.68 0.67 0.67 0.67 0.67 0.71 0.72 0.72 0.73 0.69 0.67 0.67 0.76 0.83 0.89 0.94 0.98 0.93 0.91 0.95 1.06 1.16 1.15 1.17 1.06 0.95 0.94 1.00 1.02 0.94
0.53 0.57 0.59 0.60 0.59 0.57 0.56 0.58 0.61 0.60 0.57 0.58 0.63 0.68 0.72 0.72 0.69 0.63 0.64 0.69 0.74 0.80 0.82 0.81 0.80 0.82 0.87 0.97 1.04 1.11 1.09 0.98 0.95 0.96 0.91 0.76 0.65 0.68
0.60 0.58 0.56 0.57 0.53 0.50 0.52 0.54 0.55 0.55 0.54 0.55 0.60 0.64 0.65 0.63 0.60 0.56 0.54 0.56 0.60 0.64 0.70 0.76 0.78 0.78 0.79 0.83 0.89 0.90 0.86 0.76 0.66 0.67 0.79 0.79 0.66 0.62